Starlink 32348

operational
NORAD ID: 61631 Int'l Des: 2024-191 Owner: SPXS Country: US Constellation: starlink
LEOCIRCULAR

About Starlink 32348

Description loading...

Live Position

Loading 3D Globe...

Upcoming Passes

Altitude History

Altitude vs Time

uPlot chart will show altitude changes over time

Two-Line Element Set

1 61631U 24191L 25304.67092780 .00001642 00000-0 69225-4 0 9998
2 61631 42.9988 166.6884 0001111 264.7374 95.3350 15.27562966 57764
Epoch: Oct 31, 2025 • Age: 23 hours

Current Status

Altitude 485.0 km
Velocity 7.63 km/s
Sub-Earth Point 34.10°N, 34.78°E
Launch Date Oct 23, 2024
Age 1 years
Type internet

Technical Details

Classification Payload
Mass 730.00 kg
Dry Mass 700.00 kg
Total Mass 730.00 kg
Length 0.30 m
Diameter 4.10 m
Span 29.00 m
Shape Box + pan
Manufacturer SPXS
Bus Type Starlink V2M
Phase Status In Orbit
Owner/State SPXS/US

Large Constellations

Loading constellations...